TRA1049 LQSA-LGKR

Flight info

Callsign TRA1049
Flight time 0h 45m
Altitude 33000
Route KUTAK DCT AKIKA DCT LIMJA DCT PITAS
Aircraft A21N/M-SDE3FGHIRWY/LB1

Departure

Time 2026-05-05 12:06
Airport Sarajevo International Airport (LQSA)

Arrival

Time 2026-05-05 12:52
Airport Corfu Ioannis Kapodistrias International Airport (LGKR)
Time Latitude Longitude Altitude Speed Heading
2026-05-05 11:44 43.82496 18.33743 1723 ft 0 kts 27°
2026-05-05 11:50 43.82492 18.33741 1723 ft 2 kts 27°
2026-05-05 11:50 43.82479 18.33731 1723 ft 2 kts 27°
2026-05-05 11:51 43.82466 18.33721 1723 ft 2 kts 27°
2026-05-05 11:51 43.82452 18.33712 1723 ft 2 kts 27°
2026-05-05 11:51 43.82442 18.33697 1723 ft 2 kts 69°
2026-05-05 11:51 43.82441 18.33676 1722 ft 2 kts 103°
2026-05-05 11:52 43.82443 18.33666 1722 ft 1 kts 121°
2026-05-05 11:52 43.82446 18.33660 1722 ft 0 kts 118°
2026-05-05 12:03 43.82444 18.33663 1722 ft 3 kts 118°
2026-05-05 12:03 43.82407 18.33762 1724 ft 15 kts 117°
2026-05-05 12:04 43.82360 18.33891 1727 ft 14 kts 116°
2026-05-05 12:04 43.82317 18.34004 1731 ft 12 kts 117°
2026-05-05 12:04 43.82281 18.34100 1734 ft 10 kts 116°
2026-05-05 12:04 43.82251 18.34184 1737 ft 10 kts 117°
2026-05-05 12:05 43.82209 18.34293 1740 ft 15 kts 118°
2026-05-05 12:05 43.82152 18.34441 1744 ft 19 kts 116°
2026-05-05 12:05 43.82077 18.34598 1748 ft 18 kts 144°
2026-05-05 12:05 43.81961 18.34590 1749 ft 17 kts 224°
2026-05-05 12:06 43.81976 18.34431 1745 ft 22 kts 296°
2026-05-05 12:06 43.82179 18.33877 1729 ft 106 kts 297°
2026-05-05 12:06 43.82628 18.32683 1780 ft 164 kts 294°
2026-05-05 12:06 43.82904 18.31253 2550 ft 154 kts 268°
2026-05-05 12:07 43.82768 18.29813 3280 ft 152 kts 251°
2026-05-05 12:07 43.82518 18.28384 3901 ft 161 kts 254°
2026-05-05 12:07 43.82018 18.26985 4411 ft 172 kts 217°
2026-05-05 12:07 43.80846 18.26573 4900 ft 189 kts 169°
2026-05-05 12:08 43.79731 18.27600 5381 ft 212 kts 130°
2026-05-05 12:08 43.78898 18.29361 5933 ft 228 kts 129°
2026-05-05 12:08 43.77600 18.30728 6354 ft 248 kts 161°
2026-05-05 12:08 43.75850 18.31166 6943 ft 264 kts 175°
2026-05-05 12:09 43.74034 18.31737 7730 ft 276 kts 162°
2026-05-05 12:09 43.72254 18.32658 8681 ft 280 kts 160°
2026-05-05 12:09 43.70433 18.33624 9634 ft 283 kts 160°
2026-05-05 12:09 43.68594 18.34560 10514 ft 288 kts 161°
2026-05-05 12:10 43.66676 18.35495 11130 ft 302 kts 161°
2026-05-05 12:10 43.64609 18.36471 11622 ft 320 kts 162°
2026-05-05 12:10 43.62479 18.37458 12326 ft 328 kts 162°
2026-05-05 12:10 43.60334 18.38440 13176 ft 332 kts 162°
2026-05-05 12:11 43.58127 18.39447 14038 ft 335 kts 162°
2026-05-05 12:11 43.55922 18.40452 14855 ft 339 kts 162°
2026-05-05 12:11 43.53694 18.41462 15606 ft 344 kts 163°
2026-05-05 12:11 43.51392 18.42504 16328 ft 349 kts 163°
2026-05-05 12:12 43.49080 18.43548 17062 ft 353 kts 163°
2026-05-05 12:12 43.46743 18.44602 17761 ft 359 kts 163°
2026-05-05 12:12 43.44383 18.45665 18423 ft 364 kts 163°
2026-05-05 12:12 43.41933 18.46767 19058 ft 370 kts 163°
2026-05-05 12:13 43.39482 18.47868 19677 ft 376 kts 163°
2026-05-05 12:13 43.36995 18.48987 20281 ft 382 kts 163°
2026-05-05 12:13 43.34452 18.50127 20871 ft 387 kts 163°
2026-05-05 12:13 43.31891 18.51276 21451 ft 393 kts 163°
2026-05-05 12:14 43.29273 18.52451 22041 ft 397 kts 164°
2026-05-05 12:14 43.26700 18.53787 22576 ft 405 kts 156°
2026-05-05 12:14 43.24288 18.55816 23109 ft 413 kts 144°
2026-05-05 12:14 43.22154 18.58507 23676 ft 418 kts 134°
2026-05-05 12:15 43.20194 18.61439 24248 ft 422 kts 132°
2026-05-05 12:15 43.18222 18.64463 24820 ft 426 kts 132°
2026-05-05 12:15 43.16232 18.67509 25343 ft 429 kts 133°
2026-05-05 12:15 43.14216 18.70571 25831 ft 433 kts 133°
2026-05-05 12:16 43.12206 18.73605 26312 ft 437 kts 133°
2026-05-05 12:16 43.10142 18.76708 26788 ft 440 kts 134°
2026-05-05 12:16 43.08094 18.79779 27250 ft 443 kts 134°
2026-05-05 12:16 43.05999 18.82912 27690 ft 447 kts 134°
2026-05-05 12:17 43.03910 18.86033 28123 ft 450 kts 134°
2026-05-05 12:17 43.01804 18.89174 28528 ft 454 kts 134°
2026-05-05 12:17 42.99643 18.92392 28926 ft 457 kts 134°
2026-05-05 12:17 42.97495 18.95587 29314 ft 461 kts 135°
2026-05-05 12:18 42.95320 18.98821 29685 ft 464 kts 135°
2026-05-05 12:18 42.93136 19.02060 30043 ft 468 kts 135°
2026-05-05 12:18 42.90917 19.05349 30395 ft 471 kts 135°
2026-05-05 12:18 42.88654 19.08699 30739 ft 475 kts 135°
2026-05-05 12:19 42.86415 19.12008 31054 ft 478 kts 135°
2026-05-05 12:19 42.84161 19.15338 31333 ft 482 kts 135°
2026-05-05 12:19 42.81883 19.18702 31618 ft 486 kts 135°
2026-05-05 12:19 42.79554 19.22134 31903 ft 489 kts 135°
2026-05-05 12:20 42.77264 19.25506 32200 ft 492 kts 135°
2026-05-05 12:20 42.74934 19.28933 32537 ft 493 kts 135°
2026-05-05 12:20 42.72626 19.32325 32849 ft 495 kts 135°
2026-05-05 12:20 42.70260 19.35798 33118 ft 497 kts 135°
2026-05-05 12:21 42.65548 19.42697 33156 ft 500 kts 135°
2026-05-05 12:21 42.60835 19.49584 33158 ft 500 kts 135°
2026-05-05 12:22 42.55579 19.55686 33159 ft 494 kts 152°
2026-05-05 12:22 42.49316 19.59266 33164 ft 485 kts 171°
2026-05-05 12:23 42.42788 19.60139 33171 ft 470 kts 187°
2026-05-05 12:23 42.36204 19.59816 33155 ft 471 kts 188°
2026-05-05 12:24 42.29664 19.59488 33142 ft 474 kts 188°
2026-05-05 12:24 42.23095 19.59205 33125 ft 472 kts 188°
2026-05-05 12:25 42.16558 19.58944 33117 ft 473 kts 188°
2026-05-05 12:25 42.09942 19.58687 33107 ft 474 kts 188°
2026-05-05 12:26 42.03361 19.58432 33104 ft 474 kts 188°
2026-05-05 12:26 41.96794 19.58181 33091 ft 475 kts 188°
2026-05-05 12:27 41.90164 19.57928 33091 ft 475 kts 188°
2026-05-05 12:27 41.83557 19.57674 33094 ft 475 kts 188°
2026-05-05 12:28 41.76924 19.57420 33101 ft 476 kts 188°
2026-05-05 12:28 41.70310 19.57167 33099 ft 478 kts 188°
2026-05-05 12:29 41.63664 19.56915 33104 ft 478 kts 188°
2026-05-05 12:29 41.57032 19.56665 33104 ft 478 kts 188°
2026-05-05 12:30 41.50306 19.56407 33105 ft 480 kts 188°
2026-05-05 12:30 41.43649 19.56157 33106 ft 479 kts 188°
2026-05-05 12:31 41.36984 19.55907 33109 ft 480 kts 188°
2026-05-05 12:31 41.30275 19.55653 33108 ft 481 kts 188°
2026-05-05 12:32 41.23551 19.55398 33108 ft 483 kts 188°
2026-05-05 12:32 41.16831 19.55147 33104 ft 482 kts 187°
2026-05-05 12:33 41.10139 19.54898 33105 ft 483 kts 188°
2026-05-05 12:33 41.03444 19.54650 33104 ft 483 kts 188°
2026-05-05 12:34 40.96735 19.54397 33103 ft 484 kts 188°
2026-05-05 12:34 40.89988 19.54145 33098 ft 485 kts 188°
2026-05-05 12:35 40.83242 19.53895 33097 ft 485 kts 187°
2026-05-05 12:35 40.76532 19.53647 33102 ft 485 kts 187°
2026-05-05 12:36 40.69736 19.53397 33105 ft 485 kts 187°
2026-05-05 12:36 40.66354 19.53270 32937 ft 487 kts 187°
2026-05-05 12:36 40.62938 19.53143 32354 ft 489 kts 187°
2026-05-05 12:37 40.59543 19.53254 31341 ft 500 kts 179°
2026-05-05 12:37 40.56128 19.54178 30312 ft 510 kts 167°
2026-05-05 12:37 40.52807 19.55725 29730 ft 505 kts 162°
2026-05-05 12:37 40.49523 19.57384 29204 ft 498 kts 162°
2026-05-05 12:38 40.46323 19.59015 28637 ft 492 kts 161°
2026-05-05 12:38 40.43170 19.60602 28037 ft 488 kts 162°
2026-05-05 12:38 40.40000 19.62178 27398 ft 483 kts 162°
2026-05-05 12:38 40.36887 19.63711 26815 ft 478 kts 162°
2026-05-05 12:39 40.33803 19.65220 26236 ft 473 kts 162°
2026-05-05 12:39 40.30716 19.66726 25699 ft 464 kts 162°
2026-05-05 12:39 40.27731 19.68180 25045 ft 447 kts 162°
2026-05-05 12:39 40.24894 19.69558 24431 ft 430 kts 162°
2026-05-05 12:40 40.22150 19.70888 23717 ft 418 kts 162°
2026-05-05 12:40 40.19460 19.72191 23131 ft 403 kts 162°
2026-05-05 12:40 40.16877 19.73446 22439 ft 394 kts 162°
2026-05-05 12:40 40.14317 19.74683 21673 ft 387 kts 161°
2026-05-05 12:41 40.11829 19.75883 20941 ft 380 kts 161°
2026-05-05 12:41 40.09374 19.77069 20222 ft 373 kts 161°
2026-05-05 12:41 40.06987 19.78222 19535 ft 365 kts 161°
2026-05-05 12:41 40.04647 19.79352 18850 ft 358 kts 161°
2026-05-05 12:42 40.02320 19.80475 18170 ft 351 kts 161°
2026-05-05 12:42 40.00082 19.81552 17517 ft 343 kts 161°
2026-05-05 12:42 39.97878 19.82611 16862 ft 337 kts 161°
2026-05-05 12:42 39.95705 19.83654 16235 ft 330 kts 160°
2026-05-05 12:43 39.93578 19.84677 15605 ft 323 kts 160°
2026-05-05 12:43 39.91482 19.85685 14999 ft 317 kts 160°
2026-05-05 12:43 39.89448 19.86662 14412 ft 311 kts 160°
2026-05-05 12:43 39.87406 19.87642 13816 ft 305 kts 160°
2026-05-05 12:44 39.85457 19.88576 13249 ft 299 kts 160°
2026-05-05 12:44 39.83476 19.89215 12665 ft 293 kts 179°
2026-05-05 12:44 39.81502 19.88761 12087 ft 286 kts 206°
2026-05-05 12:44 39.79937 19.87260 11535 ft 279 kts 233°
2026-05-05 12:45 39.78909 19.85175 10987 ft 275 kts 243°
2026-05-05 12:45 39.78205 19.82910 10415 ft 273 kts 263°
2026-05-05 12:45 39.78337 19.80493 9850 ft 273 kts 291°
2026-05-05 12:45 39.79329 19.78418 9289 ft 274 kts 318°
2026-05-05 12:46 39.80938 19.77093 8741 ft 277 kts 339°
2026-05-05 12:46 39.82829 19.76686 8168 ft 280 kts
2026-05-05 12:46 39.84741 19.77101 7588 ft 284 kts 23°
2026-05-05 12:46 39.86338 19.78567 7026 ft 287 kts 49°
2026-05-05 12:47 39.87289 19.80845 6455 ft 290 kts 75°
2026-05-05 12:47 39.87468 19.83432 5904 ft 293 kts 93°
2026-05-05 12:47 39.86863 19.85935 5361 ft 295 kts 122°
2026-05-05 12:47 39.85413 19.87808 4885 ft 294 kts 148°
2026-05-05 12:48 39.83536 19.88749 4428 ft 293 kts 165°
2026-05-05 12:48 39.81556 19.89405 3959 ft 292 kts 165°
2026-05-05 12:48 39.79597 19.90059 3489 ft 291 kts 165°
2026-05-05 12:48 39.77668 19.90724 3206 ft 282 kts 165°
2026-05-05 12:49 39.75835 19.91367 3183 ft 265 kts 165°
2026-05-05 12:49 39.74065 19.91708 3173 ft 247 kts 180°
2026-05-05 12:49 39.72398 19.91598 3165 ft 230 kts 185°
2026-05-05 12:49 39.70867 19.91418 3167 ft 214 kts 186°
2026-05-05 12:50 39.69410 19.91253 3028 ft 210 kts 186°
2026-05-05 12:50 39.67927 19.91061 2654 ft 215 kts 191°
2026-05-05 12:50 39.66431 19.90555 1991 ft 233 kts 197°
2026-05-05 12:50 39.64845 19.90021 1093 ft 242 kts 186°
2026-05-05 12:51 39.63290 19.90410 606 ft 219 kts 163°
2026-05-05 12:51 39.61860 19.90787 248 ft 200 kts 169°
2026-05-05 12:51 39.60556 19.91120 7 ft 176 kts 168°
2026-05-05 12:51 39.59495 19.91398 5 ft 119 kts 167°
2026-05-05 12:52 39.59208 19.91496 5 ft 9 kts 152°
2026-05-05 12:52 39.59182 19.91464 5 ft 7 kts 326°
2026-05-05 12:52 39.59247 19.91451 5 ft 10 kts 352°
2026-05-05 12:52 39.59369 19.91426 5 ft 26 kts 349°
2026-05-05 12:53 39.59599 19.91367 4 ft 41 kts 350°
2026-05-05 12:53 39.59879 19.91288 3 ft 39 kts 348°
2026-05-05 12:53 39.60138 19.91213 2 ft 36 kts 339°
2026-05-05 12:53 39.60375 19.91158 3 ft 33 kts 349°
2026-05-05 12:54 39.60693 19.91274 4 ft 19 kts 66°
2026-05-05 12:54 39.60707 19.91347 4 ft 0 kts 78°